Location: İstanbul
(41.0082°N, 28.9784°E)
Time: 20:57:49
(UTC+03:00)

ITUPSAT 1 - Pass Details

Date: 28 April 2024
Orbit: 694 x 707 km, 98.5° (Epoch: 29 May)

Event Time Altitude Azimuth Distance (km) Brightness Sun altitude
Rises 00:22:30 0° 357° (N) 3,083 ? -34.0°
Reaches altitude 10° 00:25:22 10° 338° (NNW) 2,160 ? -34.1°
Enters shadow 00:28:17 18° 300° (WNW) 1,681 ? -34.2°
